﻿測定場所 (Monitoring sites),日付 (Measurement date),時間 (Measurement time),線量率 最大値 (max) μGy/h,線量率 最小値 (min) μGy/h,線量率 平均値 (average) μGy/h,
八王子 (Hachioji),2012-09-23,23:01～24:00,0.0391,0.0344,0.0361,
八王子 (Hachioji),2012-09-23,22:01～23:00,0.0373,0.0336,0.0357,
八王子 (Hachioji),2012-09-23,21:01～22:00,0.0381,0.0338,0.0359,
八王子 (Hachioji),2012-09-23,20:01～21:00,0.0389,0.0344,0.0363,
八王子 (Hachioji),2012-09-23,19:01～20:00,0.0430,0.0356,0.0389,
八王子 (Hachioji),2012-09-23,18:01～19:00,0.0447,0.0369,0.0412,
八王子 (Hachioji),2012-09-23,17:01～18:00,0.0532,0.0410,0.0463,
八王子 (Hachioji),2012-09-23,16:01～17:00,0.0567,0.0474,0.0520,
八王子 (Hachioji),2012-09-23,15:01～16:00,0.0587,0.0497,0.0547,
八王子 (Hachioji),2012-09-23,14:01～15:00,0.0598,0.0514,0.0549,
八王子 (Hachioji),2012-09-23,13:01～14:00,0.0624,0.0511,0.0551,
八王子 (Hachioji),2012-09-23,12:01～13:00,0.0577,0.0489,0.0536,
八王子 (Hachioji),2012-09-23,11:01～12:00,0.0558,0.0488,0.0527,
八王子 (Hachioji),2012-09-23,10:01～11:00,0.0616,0.0491,0.0560,
八王子 (Hachioji),2012-09-23,09:01～10:00,0.0628,0.0544,0.0594,
八王子 (Hachioji),2012-09-23,08:01～09:00,0.0604,0.0476,0.0529,
八王子 (Hachioji),2012-09-23,07:01～08:00,0.0540,0.0470,0.0509,
八王子 (Hachioji),2012-09-23,06:01～07:00,0.0556,0.0466,0.0511,
八王子 (Hachioji),2012-09-23,05:01～06:00,0.0560,0.0466,0.0515,
八王子 (Hachioji),2012-09-23,04:01～05:00,0.0535,0.0395,0.0466,
八王子 (Hachioji),2012-09-23,03:01～04:00,0.0475,0.0389,0.0427,
八王子 (Hachioji),2012-09-23,02:01～03:00,0.0480,0.0387,0.0432,
八王子 (Hachioji),2012-09-23,01:01～02:00,0.0443,0.0349,0.0395,
八王子 (Hachioji),2012-09-23,00:01～01:00,0.0389,0.0346,0.0364,
八王子 (Hachioji),2012-09-22,23:01～24:00,0.0403,0.0343,0.0368,
八王子 (Hachioji),2012-09-22,22:01～23:00,0.0391,0.0349,0.0366,
八王子 (Hachioji),2012-09-22,21:01～22:00,0.0406,0.0346,0.0367,
八王子 (Hachioji),2012-09-22,20:01～21:00,0.0408,0.0342,0.0368,
八王子 (Hachioji),2012-09-22,19:01～20:00,0.0387,0.0345,0.0366,
八王子 (Hachioji),2012-09-22,18:01～19:00,0.0399,0.0349,0.0365,
八王子 (Hachioji),2012-09-22,17:01～18:00,0.0394,0.0343,0.0365,
八王子 (Hachioji),2012-09-22,16:01～17:00,0.0394,0.0347,0.0366,
八王子 (Hachioji),2012-09-22,15:01～16:00,0.0393,0.0340,0.0363,
八王子 (Hachioji),2012-09-22,14:01～15:00,0.0400,0.0347,0.0366,
八王子 (Hachioji),2012-09-22,13:01～14:00,0.0391,0.0339,0.0363,
八王子 (Hachioji),2012-09-22,12:01～13:00,0.0404,0.0352,0.0367,
八王子 (Hachioji),2012-09-22,11:01～12:00,0.0405,0.0349,0.0364,
八王子 (Hachioji),2012-09-22,10:01～11:00,0.0383,0.0345,0.0363,
八王子 (Hachioji),2012-09-22,09:01～10:00,0.0404,0.0346,0.0365,
八王子 (Hachioji),2012-09-22,08:01～09:00,0.0400,0.0346,0.0365,
八王子 (Hachioji),2012-09-22,07:01～08:00,0.0397,0.0341,0.0366,
八王子 (Hachioji),2012-09-22,06:01～07:00,0.0395,0.0345,0.0365,
八王子 (Hachioji),2012-09-22,05:01～06:00,0.0389,0.0340,0.0364,
八王子 (Hachioji),2012-09-22,04:01～05:00,0.0378,0.0339,0.0363,
八王子 (Hachioji),2012-09-22,03:01～04:00,0.0400,0.0343,0.0363,
八王子 (Hachioji),2012-09-22,02:01～03:00,0.0383,0.0344,0.0364,
八王子 (Hachioji),2012-09-22,01:01～02:00,0.0398,0.0348,0.0366,
八王子 (Hachioji),2012-09-22,00:01～01:00,0.0402,0.0348,0.0368,
八王子 (Hachioji),2012-09-21,23:01～24:00,0.0422,0.0356,0.0382,
八王子 (Hachioji),2012-09-21,22:01～23:00,0.0488,0.0370,0.0432,
八王子 (Hachioji),2012-09-21,21:01～22:00,0.0453,0.0340,0.0371,
八王子 (Hachioji),2012-09-21,20:01～21:00,0.0399,0.0347,0.0367,
八王子 (Hachioji),2012-09-21,19:01～20:00,0.0412,0.0357,0.0376,
八王子 (Hachioji),2012-09-21,18:01～19:00,0.0460,0.0364,0.0411,
八王子 (Hachioji),2012-09-21,17:01～18:00,0.0505,0.0356,0.0446,
八王子 (Hachioji),2012-09-21,16:01～17:00,0.0410,0.0346,0.0372,
八王子 (Hachioji),2012-09-21,15:01～16:00,0.0398,0.0347,0.0370,
八王子 (Hachioji),2012-09-21,14:01～15:00,0.0407,0.0353,0.0374,
八王子 (Hachioji),2012-09-21,13:01～14:00,0.0421,0.0356,0.0382,
八王子 (Hachioji),2012-09-21,12:01～13:00,0.0404,0.0353,0.0373,
八王子 (Hachioji),2012-09-21,11:01～12:00,0.0436,0.0361,0.0387,
八王子 (Hachioji),2012-09-21,10:01～11:00,0.0409,0.0353,0.0378,
八王子 (Hachioji),2012-09-21,09:01～10:00,0.0404,0.0357,0.0370,
八王子 (Hachioji),2012-09-21,08:01～09:00,0.0396,0.0352,0.0370,
八王子 (Hachioji),2012-09-21,07:01～08:00,0.0424,0.0362,0.0386,
八王子 (Hachioji),2012-09-21,06:01～07:00,0.0422,0.0355,0.0382,
八王子 (Hachioji),2012-09-21,05:01～06:00,0.0393,0.0350,0.0370,
八王子 (Hachioji),2012-09-21,04:01～05:00,0.0409,0.0346,0.0370,
八王子 (Hachioji),2012-09-21,03:01～04:00,0.0413,0.0339,0.0371,
八王子 (Hachioji),2012-09-21,02:01～03:00,0.0394,0.0349,0.0371,
八王子 (Hachioji),2012-09-21,01:01～02:00,0.0402,0.0351,0.0369,
八王子 (Hachioji),2012-09-21,00:01～01:00,0.0392,0.0350,0.0368,
八王子 (Hachioji),2012-09-20,23:01～24:00,0.0392,0.0350,0.0367,
八王子 (Hachioji),2012-09-20,22:01～23:00,0.0395,0.0349,0.0367,
八王子 (Hachioji),2012-09-20,21:01～22:00,0.0389,0.0350,0.0365,
八王子 (Hachioji),2012-09-20,20:01～21:00,0.0398,0.0348,0.0366,
八王子 (Hachioji),2012-09-20,19:01～20:00,0.0383,0.0340,0.0364,
八王子 (Hachioji),2012-09-20,18:01～19:00,0.0387,0.0344,0.0362,
八王子 (Hachioji),2012-09-20,17:01～18:00,0.0380,0.0348,0.0361,
八王子 (Hachioji),2012-09-20,16:01～17:00,0.0389,0.0331,0.0362,
八王子 (Hachioji),2012-09-20,15:01～16:00,0.0406,0.0340,0.0363,
八王子 (Hachioji),2012-09-20,14:01～15:00,0.0390,0.0343,0.0361,
八王子 (Hachioji),2012-09-20,13:01～14:00,0.0390,0.0344,0.0362,
八王子 (Hachioji),2012-09-20,12:01～13:00,0.0385,0.0339,0.0364,
八王子 (Hachioji),2012-09-20,11:01～12:00,0.0384,0.0346,0.0365,
八王子 (Hachioji),2012-09-20,10:01～11:00,0.0411,0.0349,0.0367,
八王子 (Hachioji),2012-09-20,09:01～10:00,0.0394,0.0351,0.0367,
八王子 (Hachioji),2012-09-20,08:01～09:00,0.0400,0.0350,0.0371,
八王子 (Hachioji),2012-09-20,07:01～08:00,0.0401,0.0350,0.0371,
八王子 (Hachioji),2012-09-20,06:01～07:00,0.0415,0.0348,0.0374,
八王子 (Hachioji),2012-09-20,05:01～06:00,0.0412,0.0354,0.0375,
八王子 (Hachioji),2012-09-20,04:01～05:00,0.0412,0.0349,0.0375,
八王子 (Hachioji),2012-09-20,03:01～04:00,0.0414,0.0355,0.0378,
八王子 (Hachioji),2012-09-20,02:01～03:00,0.0415,0.0353,0.0373,
八王子 (Hachioji),2012-09-20,01:01～02:00,0.0397,0.0351,0.0372,
八王子 (Hachioji),2012-09-20,00:01～01:00,0.0402,0.0350,0.0368,
八王子 (Hachioji),2012-09-19,23:01～24:00,0.0389,0.0344,0.0363,
八王子 (Hachioji),2012-09-19,22:01～23:00,0.0384,0.0337,0.0357,
八王子 (Hachioji),2012-09-19,21:01～22:00,0.0374,0.0336,0.0355,
八王子 (Hachioji),2012-09-19,20:01～21:00,0.0374,0.0336,0.0358,
八王子 (Hachioji),2012-09-19,19:01～20:00,0.0386,0.0334,0.0356,
八王子 (Hachioji),2012-09-19,18:01～19:00,0.0372,0.0338,0.0355,
八王子 (Hachioji),2012-09-19,17:01～18:00,0.0375,0.0333,0.0355,
八王子 (Hachioji),2012-09-19,16:01～17:00,0.0371,0.0332,0.0355,
八王子 (Hachioji),2012-09-19,15:01～16:00,0.0389,0.0338,0.0353,
八王子 (Hachioji),2012-09-19,14:01～15:00,0.0387,0.0324,0.0355,
八王子 (Hachioji),2012-09-19,13:01～14:00,0.0368,0.0329,0.0351,
八王子 (Hachioji),2012-09-19,12:01～13:00,0.0373,0.0337,0.0355,
八王子 (Hachioji),2012-09-19,11:01～12:00,0.0372,0.0336,0.0354,
八王子 (Hachioji),2012-09-19,10:01～11:00,0.0385,0.0338,0.0356,
八王子 (Hachioji),2012-09-19,09:01～10:00,0.0374,0.0339,0.0359,
八王子 (Hachioji),2012-09-19,08:01～09:00,0.0380,0.0334,0.0357,
八王子 (Hachioji),2012-09-19,07:01～08:00,0.0372,0.0330,0.0354,
八王子 (Hachioji),2012-09-19,06:01～07:00,0.0379,0.0341,0.0358,
八王子 (Hachioji),2012-09-19,05:01～06:00,0.0370,0.0326,0.0353,
八王子 (Hachioji),2012-09-19,04:01～05:00,0.0379,0.0329,0.0354,
八王子 (Hachioji),2012-09-19,03:01～04:00,0.0369,0.0332,0.0351,
八王子 (Hachioji),2012-09-19,02:01～03:00,0.0370,0.0332,0.0353,
八王子 (Hachioji),2012-09-19,01:01～02:00,0.0387,0.0330,0.0354,
八王子 (Hachioji),2012-09-19,00:01～01:00,0.0371,0.0335,0.0352,
八王子 (Hachioji),2012-09-18,23:01～24:00,0.0366,0.0324,0.0343,
八王子 (Hachioji),2012-09-18,22:01～23:00,0.0373,0.0337,0.0357,
八王子 (Hachioji),2012-09-18,21:01～22:00,0.0382,0.0334,0.0357,
八王子 (Hachioji),2012-09-18,20:01～21:00,0.0379,0.0341,0.0359,
八王子 (Hachioji),2012-09-18,19:01～20:00,0.0383,0.0337,0.0359,
八王子 (Hachioji),2012-09-18,18:01～19:00,0.0376,0.0341,0.0357,
八王子 (Hachioji),2012-09-18,17:01～18:00,0.0371,0.0336,0.0356,
八王子 (Hachioji),2012-09-18,16:01～17:00,0.0387,0.0333,0.0357,
八王子 (Hachioji),2012-09-18,15:01～16:00,0.0373,0.0333,0.0355,
八王子 (Hachioji),2012-09-18,14:01～15:00,0.0372,0.0336,0.0354,
八王子 (Hachioji),2012-09-18,13:01～14:00,0.0377,0.0338,0.0356,
八王子 (Hachioji),2012-09-18,12:01～13:00,0.0387,0.0333,0.0355,
八王子 (Hachioji),2012-09-18,11:01～12:00,0.0370,0.0335,0.0355,
八王子 (Hachioji),2012-09-18,10:01～11:00,0.0370,0.0337,0.0354,
八王子 (Hachioji),2012-09-18,09:01～10:00,0.0415,0.0356,0.0375,
八王子 (Hachioji),2012-09-18,08:01～09:00,0.0407,0.0353,0.0376,
八王子 (Hachioji),2012-09-18,07:01～08:00,0.0401,0.0359,0.0377,
八王子 (Hachioji),2012-09-18,06:01～07:00,0.0417,0.0354,0.0378,
八王子 (Hachioji),2012-09-18,05:01～06:00,0.0418,0.0356,0.0382,
八王子 (Hachioji),2012-09-18,04:01～05:00,0.0414,0.0354,0.0378,
八王子 (Hachioji),2012-09-18,03:01～04:00,0.0401,0.0353,0.0377,
八王子 (Hachioji),2012-09-18,02:01～03:00,0.0416,0.0353,0.0379,
八王子 (Hachioji),2012-09-18,01:01～02:00,0.0409,0.0357,0.0375,
八王子 (Hachioji),2012-09-18,00:01～01:00,0.0406,0.0356,0.0376,
八王子 (Hachioji),2012-09-17,23:01～24:00,0.0405,0.0359,0.0376,
八王子 (Hachioji),2012-09-17,22:01～23:00,0.0413,0.0354,0.0377,
八王子 (Hachioji),2012-09-17,21:01～22:00,0.0416,0.0355,0.0378,
八王子 (Hachioji),2012-09-17,20:01～21:00,0.0414,0.0351,0.0379,
八王子 (Hachioji),2012-09-17,19:01～20:00,0.0416,0.0360,0.0384,
八王子 (Hachioji),2012-09-17,18:01～19:00,0.0417,0.0347,0.0376,
八王子 (Hachioji),2012-09-17,17:01～18:00,0.0413,0.0358,0.0379,
八王子 (Hachioji),2012-09-17,16:01～17:00,0.0420,0.0365,0.0383,
八王子 (Hachioji),2012-09-17,15:01～16:00,0.0411,0.0360,0.0381,
八王子 (Hachioji),2012-09-17,14:01～15:00,0.0417,0.0358,0.0382,
八王子 (Hachioji),2012-09-17,13:01～14:00,0.0419,0.0352,0.0380,
八王子 (Hachioji),2012-09-17,12:01～13:00,0.0425,0.0360,0.0382,
八王子 (Hachioji),2012-09-17,11:01～12:00,0.0422,0.0365,0.0382,
八王子 (Hachioji),2012-09-17,10:01～11:00,0.0426,0.0360,0.0380,
八王子 (Hachioji),2012-09-17,09:01～10:00,0.0417,0.0360,0.0380,
八王子 (Hachioji),2012-09-17,08:01～09:00,0.0419,0.0355,0.0380,
八王子 (Hachioji),2012-09-17,07:01～08:00,0.0418,0.0360,0.0382,
八王子 (Hachioji),2012-09-17,06:01～07:00,0.0416,0.0356,0.0382,
八王子 (Hachioji),2012-09-17,05:01～06:00,0.0421,0.0362,0.0388,
八王子 (Hachioji),2012-09-17,04:01～05:00,0.0426,0.0365,0.0394,
八王子 (Hachioji),2012-09-17,03:01～04:00,0.0433,0.0363,0.0398,
八王子 (Hachioji),2012-09-17,02:01～03:00,0.0444,0.0369,0.0396,
八王子 (Hachioji),2012-09-17,01:01～02:00,0.0418,0.0359,0.0389,
八王子 (Hachioji),2012-09-17,00:01～01:00,0.0418,0.0358,0.0393,
